Starlink 6105

operational
NORAD ID: 56118 Int'l Des: 2023-046 Owner: SPXS Country: US Constellation: starlink
LEOCIRCULAR

Starlink 6105について

説明を読み込み中...

リアルタイム位置

3D地球を読み込み中...

次回通過

高度履歴

Altitude vs Time

uPlot chart will show altitude changes over time

軌道要素

1 56118U 23046AB 25260.24041344 .00078573 00000-0 49484-3 0 9995
2 56118 43.0009 328.0587 0001448 319.5328 40.5434 15.75722977136585
Epoch: Sep 17, 2025 • Age: 27 hours

現在のステータス

高度 354.7 km
速度 7.70 km/s
衛星直下点 -42.98°S, 108.25°E
打ち上げ日 Mar 29, 2023
運用期間 2.4 years
タイプ internet

技術仕様

分類 Payload
質量 305.00 kg
乾燥質量 290.00 kg
総質量 305.00 kg
長さ 0.20 m
直径 2.80 m
スパン 9.00 m
形状 Box + pan
製造者 SPXS
バスタイプ Starlink
フェーズステータス In Orbit
所有者/国 SPXS/US

大規模コンステレーション

Loading constellations...